• în România
  • Lista ţărilor
  • Pe 7 zile
  • Temperatura apei
  • Hartă satelitară
  • Meteo pe hartă
  • Widget-uri
  • user-avatar
    Intrare

    Meteo pe oră la Nam Dinh

    Astăzi, 25 Mai, Vineri

    Timp Temperatura Precipitaţii Vânt Presiune Umiditate
    00:00 +30°C° 0,1 mm 4 m/s 753 mmHg 79%
    01:00 +30°C° 0 mm 4 m/s 754 mmHg 79%
    02:00 +30°C° 0,1 mm 4 m/s 753 mmHg 79%
    03:00 +30°C° 0,1 mm 4 m/s 753 mmHg 80%
    04:00 +30°C° 0,1 mm 4 m/s 753 mmHg 80%
    05:00 +30°C° 0,1 mm 4 m/s 753 mmHg 76%
    06:00 +32°C° 0,1 mm 4 m/s 753 mmHg 72%
    07:00 +32°C° 0 mm 4 m/s 754 mmHg 69%
    08:00 +34°C° 0 mm 4 m/s 754 mmHg 61%
    09:00 +36°C° 0 mm 4 m/s 753 mmHg 53%
    10:00 +38°C° 0 mm 4 m/s 753 mmHg 45%
    11:00 +40°C° 0 mm 4 m/s 753 mmHg 43%
    12:00 +40°C° 0 mm 5 m/s 752 mmHg 41%
    13:00 +41°C° 0 mm 5 m/s 752 mmHg 39%
    14:00 +40°C° 0 mm 5 m/s 751 mmHg 42%
    15:00 +40°C° 0 mm 6 m/s 751 mmHg 46%
    16:00 +39°C° 0 mm 6 m/s 751 mmHg 49%
    17:00 +36°C° 0 mm 6 m/s 751 mmHg 54%
    18:00 +35°C° 0 mm 6 m/s 751 mmHg 60%
    19:00 +33°C° 0 mm 6 m/s 751 mmHg 66%
    20:00 +33°C° 0 mm 6 m/s 751 mmHg 68%
    21:00 +33°C° 0 mm 6 m/s 752 mmHg 71%
    22:00 +33°C° 0 mm 6 m/s 752 mmHg 73%
    23:00 +33°C° 0 mm 6 m/s 752 mmHg 73%

    Mâine, 26 Mai, Sâmbătă

    Timp Temperatura Precipitaţii Vânt Presiune Umiditate
    00:00 +33°C° 0 mm 6 m/s 752 mmHg 74%
    01:00 +33°C° 0 mm 6 m/s 752 mmHg 74%
    02:00 +32°C° 0 mm 6 m/s 752 mmHg 74%
    03:00 +32°C° 0 mm 5 m/s 752 mmHg 74%
    04:00 +32°C° 0 mm 4 m/s 752 mmHg 75%
    05:00 +32°C° 0 mm 4 m/s 752 mmHg 72%
    06:00 +33°C° 0 mm 4 m/s 752 mmHg 70%
    07:00 +33°C° 0 mm 3 m/s 753 mmHg 68%
    08:00 +35°C° 0 mm 3 m/s 753 mmHg 61%
    09:00 +37°C° 0 mm 3 m/s 753 mmHg 54%
    10:00 +39°C° 0 mm 3 m/s 753 mmHg 47%
    11:00 +40°C° 0 mm 3 m/s 753 mmHg 45%
    12:00 +42°C° 0 mm 3 m/s 753 mmHg 42%
    13:00 +43°C° 0 mm 4 m/s 752 mmHg 40%
    14:00 +42°C° 0 mm 4 m/s 752 mmHg 43%
    15:00 +41°C° 0 mm 5 m/s 751 mmHg 46%
    16:00 +40°C° 0 mm 6 m/s 751 mmHg 49%
    17:00 +37°C° 0 mm 5 m/s 751 mmHg 55%
    18:00 +36°C° 0 mm 5 m/s 751 mmHg 60%
    19:00 +34°C° 0 mm 5 m/s 752 mmHg 66%
    20:00 +34°C° 0 mm 4 m/s 752 mmHg 69%
    21:00 +33°C° 0 mm 4 m/s 753 mmHg 72%
    22:00 +33°C° 0 mm 3 m/s 753 mmHg 74%
    23:00 +33°C° 0 mm 3 m/s 753 mmHg 74%

    Poimâine, 27 Mai, Duminică

    Timp Temperatura Precipitaţii Vânt Presiune Umiditate
    00:00 +33°C° 0 mm 3 m/s 753 mmHg 74%
    01:00 +33°C° 0 mm 3 m/s 753 mmHg 73%
    02:00 +33°C° 0 mm 3 m/s 753 mmHg 74%
    03:00 +31°C° 0 mm 3 m/s 753 mmHg 74%
    04:00 +31°C° 0 mm 3 m/s 753 mmHg 74%
    05:00 +31°C° 0 mm 3 m/s 753 mmHg 74%
    06:00 +33°C° 0 mm 3 m/s 754 mmHg 74%
    07:00 +32°C° 0 mm 2 m/s 754 mmHg 73%
    08:00 +34°C° 0 mm 2 m/s 754 mmHg 71%
    09:00 +34°C° 0 mm 2 m/s 755 mmHg 68%
    10:00 +35°C° 0 mm 2 m/s 755 mmHg 65%
    11:00 +36°C° 1 mm 2 m/s 755 mmHg 63%
    12:00 +37°C° 1 mm 2 m/s 754 mmHg 60%
    13:00 +37°C° 1 mm 3 m/s 754 mmHg 58%
    14:00 +38°C° 0,3 mm 3 m/s 754 mmHg 56%
    15:00 +38°C° 0,3 mm 3 m/s 753 mmHg 55%
    16:00 +38°C° 0,3 mm 3 m/s 753 mmHg 53%
    17:00 +36°C° 0,6 mm 3 m/s 753 mmHg 59%
    18:00 +35°C° 0,6 mm 2 m/s 753 mmHg 66%
    19:00 +32°C° 0,6 mm 2 m/s 754 mmHg 72%
    20:00 +32°C° 1,3 mm 2 m/s 754 mmHg 76%
    21:00 +31°C° 1,3 mm 1 m/s 755 mmHg 79%
    22:00 +30°C° 1,3 mm 1 m/s 755 mmHg 83%
    23:00 +30°C° 0,7 mm 1 m/s 755 mmHg 83%

    28 Mai, Luni

    Timp Temperatura Precipitaţii Vânt Presiune Umiditate
    00:00 +30°C° 0,7 mm 1 m/s 755 mmHg 84%
    01:00 +30°C° 0,7 mm 1 m/s 755 mmHg 85%
    02:00 +30°C° 0,5 mm 1 m/s 754 mmHg 86%
    03:00 +30°C° 0,5 mm 1 m/s 754 mmHg 87%
    04:00 +29°C° 0,5 mm 1 m/s 754 mmHg 88%
    05:00 +30°C° 0 mm 1 m/s 755 mmHg 87%
    06:00 +30°C° 0 mm 1 m/s 755 mmHg 86%
    07:00 +30°C° 0 mm 2 m/s 755 mmHg 85%
    08:00 +31°C° 0 mm 2 m/s 756 mmHg 78%
    09:00 +33°C° 0 mm 1 m/s 756 mmHg 70%
    10:00 +35°C° 0 mm 1 m/s 756 mmHg 63%
    11:00 +36°C° 0 mm 1 m/s 756 mmHg 59%
    12:00 +37°C° 0 mm 1 m/s 755 mmHg 55%
    13:00 +39°C° 0 mm 2 m/s 755 mmHg 51%
    14:00 +38°C° 0 mm 2 m/s 754 mmHg 53%
    15:00 +38°C° 0 mm 2 m/s 753 mmHg 55%
    16:00 +37°C° 0 mm 3 m/s 753 mmHg 57%
    17:00 +36°C° 0 mm 3 m/s 753 mmHg 62%
    18:00 +34°C° 0 mm 3 m/s 753 mmHg 67%
    19:00 +33°C° 0 mm 3 m/s 753 mmHg 72%
    20:00 +33°C° 0,2 mm 3 m/s 754 mmHg 73%
    21:00 +32°C° 0,2 mm 2 m/s 754 mmHg 74%
    22:00 +31°C° 0,2 mm 2 m/s 755 mmHg 75%
    23:00 +31°C° 0 mm 2 m/s 754 mmHg 76%

    29 Mai, Marţi

    Timp Temperatura Precipitaţii Vânt Presiune Umiditate
    00:00 +31°C° 0 mm 2 m/s 754 mmHg 77%
    01:00 +31°C° 0 mm 2 m/s 754 mmHg 78%
    02:00 +31°C° 0 mm 2 m/s 754 mmHg 80%
    03:00 +30°C° 0 mm 2 m/s 753 mmHg 82%
    04:00 +30°C° 0 mm 2 m/s 753 mmHg 84%
    05:00 +31°C° 0 mm 3 m/s 754 mmHg 82%
    06:00 +31°C° 0 mm 3 m/s 754 mmHg 79%
    07:00 +33°C° 0 mm 3 m/s 755 mmHg 77%
    08:00 +35°C° 0,1 mm 3 m/s 755 mmHg 69%
    09:00 +36°C° 0,1 mm 3 m/s 755 mmHg 61%
    10:00 +38°C° 0,1 mm 3 m/s 755 mmHg 54%
    11:00 +39°C° 0 mm 3 m/s 754 mmHg 50%
    12:00 +40°C° 0 mm 3 m/s 753 mmHg 46%
    13:00 +42°C° 0 mm 4 m/s 753 mmHg 42%
    14:00 +41°C° 0 mm 4 m/s 752 mmHg 44%
    15:00 +41°C° 0 mm 4 m/s 751 mmHg 46%
    16:00 +40°C° 0 mm 5 m/s 751 mmHg 47%
    17:00 +39°C° 0 mm 5 m/s 751 mmHg 54%
    18:00 +36°C° 0 mm 4 m/s 752 mmHg 62%
    19:00 +34°C° 0 mm 4 m/s 752 mmHg 69%
    20:00 +34°C° 0 mm 4 m/s 753 mmHg 71%
    21:00 +33°C° 0 mm 4 m/s 754 mmHg 74%
    22:00 +33°C° 0 mm 3 m/s 754 mmHg 77%
    23:00 +33°C° 0,1 mm 3 m/s 754 mmHg 78%

    30 Mai, Miercuri

    Timp Temperatura Precipitaţii Vânt Presiune Umiditate
    00:00 +31°C° 0,1 mm 3 m/s 754 mmHg 80%
    01:00 +31°C° 0,1 mm 3 m/s 754 mmHg 82%
    02:00 +31°C° 0 mm 3 m/s 754 mmHg 83%
    03:00 +31°C° 0 mm 3 m/s 753 mmHg 84%
    04:00 +31°C° 0 mm 3 m/s 753 mmHg 85%
    05:00 +31°C° 0 mm 3 m/s 754 mmHg 82%
    06:00 +33°C° 0 mm 3 m/s 754 mmHg 80%
    07:00 +33°C° 0 mm 3 m/s 755 mmHg 77%
    08:00 +35°C° 0 mm 3 m/s 755 mmHg 69%
    09:00 +37°C° 0 mm 3 m/s 755 mmHg 60%
    10:00 +39°C° 0 mm 3 m/s 755 mmHg 51%
    11:00 +40°C° 0 mm 3 m/s 754 mmHg 46%
    12:00 +42°C° 0 mm 3 m/s 754 mmHg 42%
    13:00 +43°C° 0 mm 3 m/s 753 mmHg 37%
    14:00 +43°C° 0 mm 3 m/s 752 mmHg 39%
    15:00 +42°C° 0 mm 4 m/s 752 mmHg 40%
    16:00 +42°C° 0 mm 4 m/s 751 mmHg 42%
    17:00 +40°C° 0 mm 4 m/s 752 mmHg 50%
    18:00 +37°C° 0 mm 4 m/s 752 mmHg 58%
    19:00 +34°C° 0 mm 4 m/s 753 mmHg 66%
    20:00 +34°C° 0 mm 4 m/s 753 mmHg 68%
    21:00 +34°C° 0 mm 3 m/s 754 mmHg 71%
    22:00 +33°C° 0 mm 3 m/s 754 mmHg 73%
    23:00 +33°C° 0 mm 3 m/s 754 mmHg 75%
    Arată mai mult